Location: Bratsk-Energetik
(56.3300°N, 101.7600°E)
Time: 21:41:12
(UTC+08:00)

ISS - Pass Details

Date: 15 July 2018
Orbit: 402 x 408 km, 51.6° (Epoch: 21 July)

Event Time Altitude Azimuth Distance (km) Brightness Sun altitude
Exits shadow 01:39:26 19° 160° (SSE) 1,053 -2.3 -11.9°
Maximum altitude 01:39:40 19° 154° (SSE) 1,048 -2.2 -11.9°
Drops below altitude 10° 01:42:05 10° 107° (ESE) 1,471 -1.1 -11.9°
Sets 01:44:33 0° 89° (E) 2,336 0.1 -11.9°
